TIANMU-1 15

Last updated on Sat Jun 14 2025 00:02:21 GMT+0000 (Coordinated Universal Time)

1 58700U 24004A 25164.54079270 .00008221 00000+0 36326-3 0 9997 2 58700 97.4650 347.0497 0006215 196.8485 163.2545 15.21960827 79612
UTC large
Height (km)
Speed (km/s)
/
Latitude / Longitude
Inclination (degrees)
Orbital Period (minutes)
Azimuth
Elevation
Range (km)
Doppler Factor

Next 0 passes for location: London (51.5072 / 0.1276)

Sorry there are no passes over London.